If you wish to contribute or participate in the discussions about articles you are invited to join SKYbrary as a registered user

 Actions

Kadena Air Base

From SKYbrary Wiki

RODN /
Revision as of 21:42, 25 June 2020 by Admin (talk | contribs) (Text replacement - "===test===" to "")
(diff) ← Older revision | Latest revision (diff) | Newer revision → (diff)
Airport
ICAO: RODN – IATA: DNA
Summary
Name Kadena Air Base
Region Asia and Pacific
Territory Japan JP.gif
Location Kadena, Okinawa
Serving Kadena
Elevation 44.501 m <br />146 ft <br />146 ft44.501 m <br />
Type large airport
Coordinates 26° 21' 20.20" N, 127° 46' 3.48" E
Runways
Designator Length Width Surface ROPS
05L/23R 3688 m12,099.738 ft <br /> 91 m298.556 ft <br /> ASP yes/yes
05R/23L 3688 m12,099.738 ft <br /> 61 m200.131 ft <br /> CON yes/yes


METAR
Observation RODN 240556Z AUTO 07008KT 10SM FEW040 SCT060 27/19 A2998 RMK AO2 SLP158 60000 T02660194 10272 20231 57020 $
Station Kadena Ab
Date/Time 24 October 2021 05:56:00
Wind direction 70°
Wind speed 08 kts
Lowest cloud amount few clouds
Temperature 26.6°C
Dew point 19.4°C
Humidity 64%
QNH hPa
Weather condition n/a